FW0267 Weather Reports


time (UTC)temp
C
wind
direction
speed
KPH
gust
KPH
rain 1hr
cm
rain 24hr
cm
rain mn
cm
humidity
%
barometer
mb
20260509003545 17 292 0.0 0.0 0.00 0.00 0.00 50 1014.1
20260509003045 17 292 0.0 0.0 0.00 0.00 0.00 49 1014.1
20260509002542 17 292 0.0 0.0 0.00 0.00 0.00 48 1014.0
20260509002040 18 292 0.0 0.0 0.00 0.00 0.00 46 1013.9
20260509001539 18 292 0.0 0.0 0.00 0.00 0.00 46 1014.0
20260509001038 18 292 0.0 0.0 0.00 0.00 0.00 45 1013.9
20260509000539 18 292 0.0 3.2 0.00 0.00 0.00 45 1013.9
20260509000035 18 292 0.0 3.2 0.00 0.00 0.00 42 1013.9
20260508235534 18 321 0.0 0.0 0.00 0.00 0.00 41 1013.7
20260508235033 18 323 0.0 0.0 0.00 0.00 0.00 43 1013.7
20260508234534 18 323 0.0 4.8 0.00 0.00 0.00 43 1013.7
20260508234028 19 323 0.0 4.8 0.00 0.00 0.00 43 1013.7
20260508233527 19 160 0.0 9.7 0.00 0.00 0.00 43 1013.7
20260508233033 19 160 1.6 9.7 0.00 0.00 0.00 40 1013.6
20260508232524 19 126 0.0 4.8 0.00 0.00 0.00 40 1013.5
20260508232023 19 123 1.6 8.0 0.00 0.00 0.00 39 1013.5
20260508231524 19 144 0.0 8.0 0.00 0.00 0.00 39 1013.4
20260508231021 19 153 0.0 0.0 0.00 0.00 0.00 39 1013.3
20260508230518 20 153 0.0 0.0 0.00 0.00 0.00 39 1013.4
20260508230017 20 153 0.0 4.8 0.00 0.00 0.00 38 1013.3
20260508225516 20 153 0.0 4.8 0.00 0.00 0.00 38 1013.4
20260508225015 20 153 1.6 8.0 0.00 0.00 0.00 38 1013.4
20260508224513 20 135 0.0 11.3 0.00 0.00 0.00 37 1013.3
20260508224011 20 198 1.6 11.3 0.00 0.00 0.00 38 1013.3
20260508223514 20 146 0.0 0.0 0.00 0.00 0.00 39 1013.3
20260508223016 20 145 0.0 1.6 0.00 0.00 0.00 38 1013.4
20260508222508 20 145 0.0 4.8 0.00 0.00 0.00 38 1013.3
20260508222010 20 146 1.6 4.8 0.00 0.00 0.00 35 1013.4
20260508221504 20 122 0.0 4.8 0.00 0.00 0.00 35 1013.4
20260508221005 20 237 1.6 4.8 0.00 0.00 0.00 37 1013.6
20260508220502 20 244 1.6 3.2 0.00 0.00 0.00 36 1013.6
20260508220105 20 244 0.0 4.8 0.00 0.00 0.00 38 1013.6
20260508215559 20 244 0.0 4.8 0.00 0.00 0.00 37 1013.6
20260508215057 20 169 0.0 6.4 0.00 0.00 0.00 35 1013.7
20260508214556 20 202 3.2 6.4 0.00 0.00 0.00 34 1013.5
20260508214054 20 159 0.0 6.4 0.00 0.00 0.00 34 1013.6
20260508213552 20 178 1.6 6.4 0.00 0.00 0.00 36 1013.6
20260508213051 20 333 0.0 6.4 0.00 0.00 0.00 36 1013.6
20260508212550 20 121 0.0 9.7 0.00 0.00 0.00 35 1013.6
20260508212049 20 136 0.0 6.4 0.00 0.00 0.00 35 1013.6
20260508211547 21 143 1.6 8.0 0.00 0.00 0.00 34 1013.6
20260508211045 21 200 3.2 8.0 0.00 0.00 0.00 34 1013.5
20260508210544 21 236 0.0 8.0 0.00 0.00 0.00 32 1013.5
20260508210043 21 257 3.2 8.0 0.00 0.00 0.00 33 1013.5
20260508205540 21 82 1.6 8.0 0.00 0.18 0.00 36 1013.6
20260508205041 21 49 1.6 11.3 0.00 0.18 0.00 31 1013.7
20260508204547 21 185 3.2 11.3 0.00 0.18 0.00 31 1013.7
20260508204036 22 139 1.6 6.4 0.00 0.18 0.00 32 1013.7
20260508203535 22 232 1.6 4.8 0.00 0.18 0.00 32 1013.9
20260508203041 22 231 0.0 4.8 0.00 0.18 0.00 32 1013.9
20260508202532 22 198 0.0 0.0 0.00 0.18 0.00 31 1013.9
20260508202030 23 230 0.0 3.2 0.00 0.18 0.00 30 1013.9
20260508201529 23 230 0.0 4.8 0.00 0.18 0.00 30 1013.9
20260508201028 23 230 0.0 6.4 0.00 0.18 0.00 29 1013.9
20260508200526 23 130 1.6 6.4 0.00 0.18 0.00 28 1014.0
20260508200028 24 167 3.2 6.4 0.00 0.18 0.00 29 1014.0
20260508195525 23 221 0.0 6.4 0.00 0.28 0.00 30 1014.0
20260508195025 23 191 0.0 4.8 0.00 0.28 0.00 30 1014.0
20260508194520 23 240 0.0 4.8 0.00 0.28 0.00 30 1014.1
20260508194019 23 240 0.0 11.3 0.00 0.28 0.00 30 1014.2
20260508193517 23 243 3.2 11.3 0.00 0.28 0.00 29 1014.1
20260508193016 23 163 1.6 11.3 0.00 0.28 0.00 28 1014.3
20260508192514 23 205 1.6 4.8 0.00 0.28 0.00 29 1014.5
20260508192013 23 200 0.0 6.4 0.00 0.28 0.00 31 1014.7
20260508191514 23 70 1.6 6.4 0.00 0.28 0.00 30 1014.8
20260508191010 23 239 1.6 8.0 0.00 0.28 0.00 32 1015.1
20260508190508 23 221 0.0 8.0 0.00 0.28 0.00 31 1015.0
20260508190007 23 328 1.6 4.8 0.00 0.28 0.00 31 1015.2
20260508185505 23 142 1.6 6.4 0.00 0.28 0.00 32 1015.5
20260508185004 23 145 0.0 9.7 0.00 0.28 0.00 32 1015.4
20260508184506 23 179 3.2 9.7 0.00 0.28 0.00 28 1015.4
20260508184100 23 223 4.8 8.0 0.00 0.28 0.00 29 1015.4
20260508183559 24 158 0.0 0.0 0.00 0.28 0.00 31 1015.5
20260508183103 23 239 0.0 4.8 0.00 0.28 0.00 33 1015.4
20260508182556 23 239 1.6 4.8 0.00 0.28 0.00 30 1015.5
20260508182055 23 169 1.6 6.4 0.00 0.28 0.00 32 1015.6
20260508181556 23 183 1.6 11.3 0.00 0.28 0.00 32 1015.5
20260508181055 23 113 0.0 11.3 0.00 0.28 0.00 32 1015.6
20260508180551 23 224 1.6 12.9 0.00 0.28 0.00 32 1015.9
20260508180049 23 160 3.2 12.9 0.00 0.28 0.00 31 1016.0
20260508175547 23 178 1.6 6.4 0.00 0.28 0.00 31 1016.0
20260508175046 23 181 1.6 6.4 0.00 0.28 0.00 33 1016.2
20260508174553 23 162 1.6 6.4 0.00 0.28 0.00 33 1016.0
20260508174042 23 209 1.6 8.0 0.00 0.28 0.00 33 1016.1
20260508173541 23 141 0.0 8.0 0.00 0.28 0.00 32 1016.2
20260508173040 22 150 1.6 8.0 0.00 0.28 0.00 29 1016.3
20260508172538 22 179 3.2 8.0 0.00 0.28 0.00 31 1016.4
20260508172038 23 152 3.2 8.0 0.00 0.28 0.00 27 1016.4
20260508171537 23 207 0.0 4.8 0.00 0.28 0.00 32 1016.5
20260508171034 23 207 0.0 0.0 0.00 0.28 0.00 33 1016.6
20260508170532 22 209 0.0 0.0 0.00 0.28 0.00 35 1016.7
20260508170035 22 209 0.0 0.0 0.00 0.28 0.00 29 1016.7
20260508165529 22 210 0.0 0.0 0.00 0.28 0.00 32 1016.8
20260508165028 22 210 0.0 4.8 0.00 0.28 0.00 35 1016.9
20260508164527 22 199 0.0 4.8 0.00 0.28 0.00 33 1017.0
20260508164025 22 199 0.0 3.2 0.00 0.28 0.00 33 1017.1
20260508163524 22 146 0.0 3.2 0.00 0.28 0.00 35 1017.1
20260508163022 22 146 0.0 3.2 0.00 0.28 0.00 34 1017.2
20260508162520 21 138 0.0 3.2 0.00 0.28 0.00 33 1017.2
20260508162020 21 140 0.0 9.7 0.00 0.28 0.00 36 1017.3
20260508161519 21 139 0.0 9.7 0.00 0.28 0.00 31 1017.5
20260508161018 21 188 0.0 4.8 0.00 0.28 0.00 35 1017.5
20260508160515 21 235 0.0 0.0 0.00 0.28 0.00 36 1017.6
20260508160016 21 220 0.0 0.0 0.00 0.28 0.00 37 1017.7
20260508155515 20 219 0.0 0.0 0.00 0.28 0.00 38 1017.6
20260508155011 20 219 0.0 3.2 0.00 0.28 0.00 37 1017.6
20260508154510 20 190 0.0 4.8 0.00 0.28 0.00 37 1017.6
20260508154007 20 192 1.6 4.8 0.00 0.28 0.00 38 1017.7
20260508153506 20 53 0.0 0.0 0.00 0.28 0.00 43 1017.7
20260508153004 20 54 0.0 0.0 0.00 0.28 0.00 45 1017.7
20260508152503 19 49 0.0 0.0 0.00 0.28 0.00 43 1017.7
20260508152000 19 55 0.0 0.0 0.00 0.28 0.00 44 1017.9
20260508151604 18 43 0.0 0.0 0.00 0.28 0.00 41 1017.9
20260508151059 18 43 0.0 0.0 0.00 0.28 0.00 41 1017.9
20260508150556 18 44 0.0 0.0 0.00 0.28 0.00 41 1018.0
20260508150054 18 44 0.0 1.6 0.00 0.28 0.00 45 1017.9
20260508145556 18 44 0.0 3.2 0.00 0.28 0.00 46 1018.1
20260508145055 18 44 0.0 3.2 0.00 0.28 0.00 44 1017.9
20260508144552 17 44 0.0 4.8 0.00 0.28 0.00 42 1017.9
20260508144048 17 44 0.0 0.0 0.00 0.28 0.00 32 1017.8
20260508143548 17 40 0.0 3.2 0.00 0.28 0.00 37 1017.9
20260508143055 16 37 0.0 3.2 0.00 0.28 0.00 25 1017.9
20260508142544 16 5 0.0 1.6 0.00 0.28 0.00 35 1017.9
20260508142043 16 350 0.0 3.2 0.00 0.28 0.00 21 1017.8
20260508141541 15 348 0.0 3.2 0.00 0.28 0.00 2 1017.7
20260508141040 15 108 0.0 0.0 0.00 0.28 0.00 1 1017.7
20260508140538 15 108 0.0 0.0 0.00 0.28 0.00 1 1017.7
20260508140040 14 108 0.0 4.8 0.00 0.28 0.00 1 1017.8
20260508135538 13 108 0.0 4.8 0.00 0.28 0.00 1 1017.7
20260508135035 13 107 0.0 3.2 0.00 0.28 0.00 1 1017.8
20260508134533 13 107 0.0 3.2 0.00 0.28 0.00 1 1017.9
20260508134030 12 102 0.0 1.6 0.00 0.28 0.00 1 1018.1
20260508133529 12 102 0.0 3.2 0.00 0.28 0.00 1 1018.0
20260508133028 12 121 1.6 3.2 0.00 0.28 0.00 1 1017.9
20260508132529 12 119 0.0 3.2 0.00 0.28 0.00 1 1017.9
20260508132027 11 96 0.0 3.2 0.00 0.28 0.00 1 1018.0
20260508131523 11 113 0.0 4.8 0.00 0.28 0.00 1 1018.0
20260508131022 11 79 1.6 4.8 0.00 0.28 0.00 1 1017.9
20260508130519 11 98 1.6 4.8 0.00 0.28 0.00 1 1018.1
20260508130025 10 111 0.0 4.8 0.00 0.28 0.00 1 1017.9
20260508125517 11 111 0.0 3.2 0.00 0.28 0.00 1 1018.0
20260508125016 11 93 0.0 1.6 0.00 0.28 0.00 1 1017.9
20260508124529 11 90 0.0 1.6 0.00 0.28 0.00 1 1017.7
20260508124012 11 107 0.0 0.0 0.00 0.28 0.00 1 1017.8
20260508123511 10 107 0.0 0.0 0.00 0.28 0.00 1 1017.7
20260508123019 10 107 0.0 0.0 0.00 0.28 0.00 1 1017.6
20260508122508 10 107 0.0 0.0 0.00 0.28 0.00 1 1017.6
20260508122006 9 107 0.0 0.0 0.00 0.28 0.00 1 1017.6
20260508121505 9 107 0.0 0.0 0.00 0.28 0.00 1 1017.5
20260508121003 8 107 0.0 0.0 0.00 0.28 0.00 1 1017.4
20260508120502 8 107 0.0 1.6 0.00 0.28 0.00 1 1017.3
20260508120002 8 107 0.0 1.6 0.00 0.28 0.00 1 1017.2
20260508115602 8 100 0.0 1.6 0.00 0.28 0.00 1 1017.1
20260508115101 8 101 0.0 1.6 0.00 0.28 0.00 1 1017.1
20260508114557 8 103 0.0 1.6 0.00 0.28 0.00 1 1017.0
20260508114055 8 107 0.0 1.6 0.00 0.28 0.00 1 1016.9
20260508113553 7 91 0.0 1.6 0.00 0.28 0.00 1 1016.9
20260508113051 7 94 0.0 1.6 0.00 0.28 0.00 1 1016.7
20260508112550 7 101 0.0 1.6 0.00 0.28 0.00 1 1016.7
20260508112048 7 100 0.0 1.6 0.00 0.28 0.00 1 1016.7
20260508111551 7 94 0.0 1.6 0.00 0.28 0.00 1 1016.5
20260508111046 7 96 0.0 0.0 0.00 0.28 0.00 1 1016.5
20260508110544 7 96 0.0 0.0 0.00 0.28 0.00 1 1016.2
20260508110044 7 96 0.0 0.0 0.00 0.28 0.00 1 1016.3
20260508105544 7 96 0.0 0.0 0.00 0.28 0.00 1 1016.2
20260508105043 7 96 0.0 0.0 0.00 0.28 0.00 1 1016.1
20260508104544 7 96 0.0 0.0 0.00 0.28 0.00 1 1016.1
20260508104037 7 96 0.0 0.0 0.00 0.28 0.00 1 1016.0
20260508103536 7 96 0.0 1.6 0.00 0.28 0.00 1 1015.9
20260508103041 7 96 0.0 1.6 0.00 0.28 0.00 1 1015.8
20260508102534 7 105 0.0 1.6 0.00 0.28 0.00 1 1015.8
20260508102033 7 106 0.0 1.6 0.00 0.28 0.00 1 1015.7
20260508101538 7 101 0.0 1.6 0.00 0.28 0.00 1 1015.7
20260508101029 7 105 0.0 1.6 0.00 0.28 0.00 1 1015.6
20260508100527 7 110 0.0 1.6 0.00 0.28 0.00 1 1015.5
20260508100026 7 67 0.0 3.2 0.00 0.28 0.00 1 1015.5
20260508095524 7 82 0.0 3.2 0.00 0.36 0.00 1 1015.4
20260508095025 7 99 0.0 1.6 0.00 0.36 0.00 1 1015.4
20260508094539 7 84 0.0 3.2 0.00 0.36 0.00 1 1015.2
20260508094021 8 41 0.0 3.2 0.00 0.36 0.00 1 1015.2
20260508093518 8 101 0.0 0.0 0.00 0.36 0.00 1 1015.1
20260508093024 8 101 0.0 0.0 0.00 0.36 0.00 1 1015.1
20260508092519 8 101 0.0 0.0 0.00 0.36 0.00 1 1015.1
20260508092014 8 101 0.0 0.0 0.00 0.36 0.00 1 1015.1
20260508091531 8 101 0.0 0.0 0.00 0.36 0.00 1 1015.0
20260508091011 8 101 0.0 0.0 0.00 0.36 0.00 1 1015.0
20260508090510 8 101 0.0 0.0 0.00 0.36 0.00 1 1014.9
20260508090009 8 101 0.0 0.0 0.00 0.36 0.00 1 1014.9
20260508085510 8 101 0.0 1.6 0.00 0.41 0.00 1 1014.8
20260508085007 8 101 0.0 1.6 0.00 0.41 0.00 1 1014.9
20260508084504 8 104 0.0 1.6 0.00 0.41 0.00 1 1014.9
20260508084002 8 105 0.0 1.6 0.00 0.41 0.00 1 1014.8
20260508083602 8 89 0.0 1.6 0.00 0.41 0.00 1 1014.7
20260508083059 8 101 0.0 1.6 0.00 0.41 0.00 1 1014.6
20260508082559 8 106 0.0 1.6 0.00 0.41 0.00 1 1014.5
20260508082057 8 98 0.0 1.6 0.00 0.41 0.00 1 1014.5
20260508081608 8 104 0.0 1.6 0.00 0.41 0.00 1 1014.4
20260508081054 8 119 0.0 1.6 0.00 0.41 0.00 1 1014.2
20260508080552 8 100 0.0 1.6 0.00 0.41 0.00 1 1014.2
20260508080052 8 96 0.0 1.6 0.00 0.41 0.00 1 1014.2
20260508075549 8 97 0.0 1.6 0.00 0.41 0.00 1 1014.2
20260508075048 8 73 0.0 1.6 0.00 0.41 0.00 1 1014.2
20260508074548 8 101 0.0 0.0 0.00 0.41 0.00 1 1014.2
20260508074048 8 101 0.0 0.0 0.00 0.41 0.00 1 1014.1
20260508073543 8 101 0.0 0.0 0.00 0.41 0.00 1 1014.1
20260508073048 8 101 0.0 0.0 0.00 0.41 0.00 1 1014.1
20260508072540 8 101 0.0 0.0 0.00 0.41 0.00 1 1014.1
20260508072039 8 101 0.0 0.0 0.00 0.41 0.00 1 1014.1
20260508071551 8 101 0.0 0.0 0.00 0.41 0.00 1 1014.1
20260508071037 8 101 0.0 0.0 0.00 0.41 0.00 1 1014.1
20260508070537 8 101 0.0 0.0 0.00 0.41 0.00 1 1014.1
20260508070050 8 101 0.0 0.0 0.00 0.41 0.00 1 1014.1
20260508065536 8 101 0.0 1.6 0.00 0.41 0.00 1 1013.9
20260508065032 8 101 0.0 1.6 0.00 0.41 0.00 1 1014.0
20260508064536 8 106 0.0 1.6 0.00 0.41 0.00 1 1014.0
20260508064029 8 106 0.0 1.6 0.00 0.41 0.00 1 1013.9
20260508063528 8 115 0.0 1.6 0.00 0.41 0.00 1 1014.0
20260508063028 8 94 0.0 1.6 0.00 0.41 0.00 1 1013.7
20260508062525 8 115 0.0 1.6 0.00 0.41 0.00 1 1013.8
20260508062023 8 115 0.0 1.6 0.00 0.41 0.00 1 1013.7
20260508061523 8 78 0.0 1.6 0.00 0.41 0.00 1 1013.7
20260508061020 8 102 0.0 1.6 0.00 0.41 0.00 1 1013.6
20260508060520 8 101 0.0 1.6 0.00 0.41 0.00 1 1013.6
20260508060023 8 106 0.0 1.6 0.00 0.41 0.00 1 1013.5
20260508055515 8 113 0.0 1.6 0.00 0.41 0.00 1 1013.6
20260508055019 8 109 0.0 0.0 0.00 0.41 0.00 1 1013.5
20260508054517 8 109 0.0 0.0 0.00 0.41 0.00 1 1013.3
20260508054011 8 109 0.0 0.0 0.00 0.41 0.00 1 1013.3
20260508053510 8 109 0.0 0.0 0.00 0.41 0.00 1 1013.3
20260508053008 8 109 0.0 0.0 0.00 0.41 0.00 1 1013.3
20260508052509 8 109 0.0 0.0 0.00 0.41 0.00 1 1013.3
20260508052005 8 109 0.0 0.0 0.00 0.41 0.00 1 1013.5
20260508051504 8 109 0.0 0.0 0.00 0.41 0.00 1 1013.5
20260508051002 8 109 0.0 0.0 0.00 0.41 0.00 1 1013.4
20260508050501 8 109 0.0 0.0 0.00 0.41 0.00 1 1013.4
20260508045559 8 109 0.0 0.0 0.00 0.41 0.00 1 1013.4
20260508045058 8 109 0.0 1.6 0.00 0.41 0.00 1 1013.3
20260508044601 8 109 0.0 1.6 0.00 0.41 0.00 1 1013.2
20260508044055 8 109 0.0 1.6 0.00 0.41 0.00 1 1013.1
20260508043553 8 99 0.0 1.6 0.00 0.41 0.00 1 1013.1
20260508043052 8 97 0.0 1.6 0.00 0.41 0.00 1 1013.1
20260508042551 9 87 0.0 1.6 0.00 0.41 0.00 1 1013.0
20260508042049 9 106 0.0 1.6 0.00 0.41 0.00 1 1013.1
20260508041548 9 101 0.0 1.6 0.00 0.41 0.00 1 1013.1
20260508041048 9 112 0.0 1.6 0.00 0.41 0.00 1 1013.1
20260508040544 9 115 0.0 1.6 0.00 0.41 0.00 1 1013.0
20260508040044 9 181 0.0 0.0 0.00 0.41 0.00 1 1012.9
20260508035542 9 181 0.0 0.0 0.00 0.41 0.41 1 1012.9
20260508035041 9 181 0.0 0.0 0.00 0.41 0.41 1 1012.8
20260508034540 9 181 0.0 0.0 0.00 0.41 0.41 1 1012.9
20260508034037 9 181 0.0 0.0 0.00 0.41 0.41 1 1012.9
20260508033536 9 181 0.0 0.0 0.00 0.41 0.41 1 1012.8
20260508033045 9 181 0.0 0.0 0.00 0.41 0.41 1 1012.7
20260508032533 9 181 0.0 0.0 0.00 0.41 0.41 1 1012.9
20260508032031 9 181 0.0 0.0 0.00 0.41 0.41 1 1012.9
20260508031530 9 181 0.0 0.0 0.00 0.41 0.41 1 1012.9
20260508031029 9 181 0.0 0.0 0.00 0.41 0.41 1 1012.8
20260508030528 9 181 0.0 0.0 0.00 0.41 0.41 1 1012.8
20260508030028 9 181 0.0 0.0 0.00 0.41 0.41 1 1012.6
20260508025528 9 181 0.0 0.0 0.00 0.41 0.41 1 1012.6
20260508025023 9 181 0.0 0.0 0.00 0.41 0.41 1 1012.6
20260508024527 9 181 0.0 0.0 0.00 0.41 0.41 1 1012.6
20260508024021 9 181 0.0 0.0 0.00 0.41 0.41 1 1012.4
20260508023519 9 181 0.0 0.0 0.00 0.41 0.41 1 1012.4
20260508023020 9 181 0.0 0.0 0.00 0.41 0.41 1 1012.5
20260508022516 10 181 0.0 0.0 0.00 0.41 0.41 1 1012.4
20260508022015 10 181 0.0 0.0 0.00 0.41 0.41 1 1012.5
20260508021519 10 181 0.0 0.0 0.00 0.41 0.41 1 1012.5
20260508021011 10 181 0.0 0.0 0.00 0.41 0.41 1 1012.4
20260508020510 10 181 0.0 0.0 0.00 0.41 0.41 1 1012.4
20260508020011 10 181 0.0 0.0 0.00 0.41 0.41 1 1012.4
20260508015507 10 181 0.0 0.0 0.00 0.41 0.41 1 1012.2
20260508015006 10 181 0.0 0.0 0.00 0.41 0.41 1 1012.2
20260508014505 10 181 0.0 0.0 0.00 0.41 0.41 1 1012.1
20260508014004 10 181 0.0 0.0 0.00 0.41 0.41 1 1012.1
20260508013501 10 181 0.0 0.0 0.00 0.41 0.41 1 1012.4
20260508013108 10 181 0.0 0.0 0.00 0.41 0.41 1 1012.2
20260508012558 10 181 0.0 0.0 0.00 0.41 0.41 1 1012.0
20260508012057 10 181 0.0 0.0 0.00 0.41 0.41 1 1012.2
20260508011600 10 181 0.0 0.0 0.00 0.41 0.41 1 1012.2
20260508011057 11 181 0.0 0.0 0.00 0.41 0.41 1 1012.0
20260508010553 11 181 0.0 0.0 0.00 0.41 0.41 1 1012.1
20260508010059 11 181 0.0 0.0 0.00 0.41 0.41 1 1011.9
20260508005550 11 181 0.0 0.0 0.00 0.41 0.41 1 1012.0
20260508005049 11 181 0.0 0.0 0.00 0.41 0.41 1 1012.0
20260508004547 11 181 0.0 0.0 0.00 0.41 0.41 1 1011.9
20260508004045 11 181 0.0 0.0 0.00 0.41 0.41 1 1011.8